QFA503 YBBN-YSSY

Flight info

Callsign QFA503
Flight time 1h 10m
Altitude 38000
Route SANEG H91 IGDAM H652 BOREE
Aircraft B738/M-SDE2E3FGHIRWXY/LB1

Departure

Time 2026-04-20 22:08
Airport Brisbane International Airport (YBBN)

Arrival

Time 2026-04-20 23:19
Airport Sydney Kingsford Smith International Airport (YSSY)
Time Latitude Longitude Altitude Speed Heading
2026-04-20 22:02 -27.38286 153.12303 21 ft 2 kts 259°
2026-04-20 22:02 -27.38283 153.12320 21 ft 2 kts 265°
2026-04-20 22:03 -27.38286 153.12337 21 ft 2 kts 302°
2026-04-20 22:03 -27.38297 153.12349 21 ft 2 kts 333°
2026-04-20 22:03 -27.38301 153.12350 21 ft 0 kts 339°
2026-04-20 22:04 -27.38295 153.12350 21 ft 1 kts 15°
2026-04-20 22:05 -27.38272 153.12389 21 ft 11 kts 76°
2026-04-20 22:05 -27.38280 153.12476 21 ft 11 kts 115°
2026-04-20 22:05 -27.38320 153.12552 21 ft 10 kts 143°
2026-04-20 22:05 -27.38370 153.12611 21 ft 10 kts 126°
2026-04-20 22:06 -27.38409 153.12683 21 ft 10 kts 117°
2026-04-20 22:06 -27.38431 153.12735 21 ft 0 kts 116°
2026-04-20 22:07 -27.38438 153.12750 21 ft 6 kts 116°
2026-04-20 22:07 -27.38489 153.12817 21 ft 13 kts 155°
2026-04-20 22:07 -27.38570 153.12802 21 ft 13 kts 207°
2026-04-20 22:07 -27.38823 153.12657 21 ft 79 kts 207°
2026-04-20 22:08 -27.39538 153.12248 23 ft 148 kts 207°
2026-04-20 22:08 -27.40537 153.11678 531 ft 166 kts 205°
2026-04-20 22:08 -27.41564 153.11118 1371 ft 169 kts 202°
2026-04-20 22:08 -27.42625 153.10577 2093 ft 169 kts 192°
2026-04-20 22:09 -27.43817 153.10706 2458 ft 184 kts 150°
2026-04-20 22:09 -27.44937 153.11571 2876 ft 205 kts 144°
2026-04-20 22:09 -27.46201 153.12520 3383 ft 226 kts 148°
2026-04-20 22:09 -27.47595 153.13483 3820 ft 249 kts 148°
2026-04-20 22:10 -27.49159 153.14491 4280 ft 270 kts 155°
2026-04-20 22:10 -27.51088 153.14963 4554 ft 299 kts 181°
2026-04-20 22:10 -27.53188 153.14545 5002 ft 319 kts 193°
2026-04-20 22:10 -27.55376 153.13817 5549 ft 334 kts 195°
2026-04-20 22:11 -27.57631 153.13002 6284 ft 342 kts 198°
2026-04-20 22:11 -27.59845 153.12077 7199 ft 343 kts 200°
2026-04-20 22:11 -27.62066 153.11110 8049 ft 346 kts 200°
2026-04-20 22:11 -27.64349 153.10207 8937 ft 347 kts 198°
2026-04-20 22:12 -27.66649 153.09398 9739 ft 350 kts 196°
2026-04-20 22:12 -27.69030 153.08615 10515 ft 355 kts 195°
2026-04-20 22:12 -27.71409 153.07846 11239 ft 360 kts 195°
2026-04-20 22:12 -27.73803 153.07066 12050 ft 362 kts 195°
2026-04-20 22:13 -27.76254 153.06259 12813 ft 367 kts 195°
2026-04-20 22:13 -27.78699 153.05446 13589 ft 370 kts 195°
2026-04-20 22:13 -27.81198 153.04611 14372 ft 374 kts 195°
2026-04-20 22:13 -27.83698 153.03722 15120 ft 380 kts 197°
2026-04-20 22:14 -27.86184 153.02698 15912 ft 384 kts 199°
2026-04-20 22:14 -27.88680 153.01581 16703 ft 387 kts 200°
2026-04-20 22:14 -27.91186 153.00433 17418 ft 392 kts 200°
2026-04-20 22:14 -27.93726 152.99281 18167 ft 395 kts 200°
2026-04-20 22:15 -27.96292 152.98135 18916 ft 397 kts 200°
2026-04-20 22:15 -27.98876 152.96999 19692 ft 399 kts 199°
2026-04-20 22:15 -28.01475 152.95865 20390 ft 402 kts 199°
2026-04-20 22:15 -28.04090 152.94728 21039 ft 406 kts 199°
2026-04-20 22:16 -28.06732 152.93582 21686 ft 409 kts 199°
2026-04-20 22:16 -28.09389 152.92429 22341 ft 411 kts 199°
2026-04-20 22:16 -28.12003 152.91292 22996 ft 413 kts 200°
2026-04-20 22:16 -28.14753 152.90093 23724 ft 413 kts 200°
2026-04-20 22:17 -28.17461 152.88911 24446 ft 413 kts 199°
2026-04-20 22:17 -28.20142 152.87741 24961 ft 417 kts 200°
2026-04-20 22:17 -28.22862 152.86556 25436 ft 422 kts 200°
2026-04-20 22:17 -28.25605 152.85358 25970 ft 425 kts 199°
2026-04-20 22:18 -28.28400 152.84135 26508 ft 427 kts 200°
2026-04-20 22:18 -28.31126 152.82942 27358 ft 421 kts 199°
2026-04-20 22:18 -28.33834 152.81755 28160 ft 415 kts 199°
2026-04-20 22:18 -28.36517 152.80577 28899 ft 411 kts 199°
2026-04-20 22:19 -28.39171 152.79414 29633 ft 407 kts 199°
2026-04-20 22:19 -28.41788 152.78265 30249 ft 404 kts 199°
2026-04-20 22:19 -28.44474 152.77089 30783 ft 404 kts 199°
2026-04-20 22:19 -28.47079 152.75946 31283 ft 404 kts 199°
2026-04-20 22:20 -28.49731 152.74783 31756 ft 404 kts 199°
2026-04-20 22:20 -28.52328 152.73644 32267 ft 402 kts 200°
2026-04-20 22:20 -28.54933 152.72499 32797 ft 400 kts 200°
2026-04-20 22:20 -28.57251 152.71481 33171 ft 400 kts 200°
2026-04-20 22:21 -28.59913 152.70309 33599 ft 400 kts 200°
2026-04-20 22:21 -28.62499 152.69170 34060 ft 399 kts 200°
2026-04-20 22:21 -28.65091 152.68028 34535 ft 397 kts 200°
2026-04-20 22:21 -28.67665 152.66893 35022 ft 395 kts 200°
2026-04-20 22:22 -28.70201 152.65775 35390 ft 396 kts 201°
2026-04-20 22:22 -28.72788 152.64633 35790 ft 395 kts 201°
2026-04-20 22:22 -28.75342 152.63507 36216 ft 393 kts 201°
2026-04-20 22:22 -28.77893 152.62381 36655 ft 391 kts 201°
2026-04-20 22:23 -28.80405 152.61269 36946 ft 392 kts 201°
2026-04-20 22:23 -28.82957 152.60141 37239 ft 392 kts 201°
2026-04-20 22:23 -28.85501 152.59016 37571 ft 391 kts 201°
2026-04-20 22:23 -28.88026 152.57899 37866 ft 391 kts 201°
2026-04-20 22:24 -28.90586 152.56766 37994 ft 395 kts 201°
2026-04-20 22:24 -28.93137 152.55637 38206 ft 396 kts 201°
2026-04-20 22:24 -28.95709 152.54497 38263 ft 398 kts 201°
2026-04-20 22:25 -29.00847 152.52219 38285 ft 394 kts 201°
2026-04-20 22:25 -29.05966 152.49945 38275 ft 393 kts 201°
2026-04-20 22:26 -29.10916 152.47745 38278 ft 393 kts 201°
2026-04-20 22:26 -29.15973 152.45494 38278 ft 395 kts 201°
2026-04-20 22:27 -29.23663 152.42067 38285 ft 395 kts 201°
2026-04-20 22:27 -29.28797 152.39777 38285 ft 393 kts 201°
2026-04-20 22:28 -29.33887 152.37503 38289 ft 393 kts 201°
2026-04-20 22:28 -29.38994 152.35220 38287 ft 393 kts 201°
2026-04-20 22:29 -29.44064 152.32950 38283 ft 393 kts 201°
2026-04-20 22:29 -29.49180 152.30658 38297 ft 393 kts 201°
2026-04-20 22:30 -29.54293 152.28365 38298 ft 393 kts 201°
2026-04-20 22:30 -29.59357 152.26090 38303 ft 394 kts 201°
2026-04-20 22:31 -29.64468 152.23793 38308 ft 394 kts 201°
2026-04-20 22:31 -29.69583 152.21490 38312 ft 394 kts 201°
2026-04-20 22:32 -29.74695 152.19189 38324 ft 395 kts 201°
2026-04-20 22:32 -29.79827 152.16875 38309 ft 395 kts 201°
2026-04-20 22:33 -29.84902 152.14583 38327 ft 393 kts 201°
2026-04-20 22:33 -29.90019 152.12270 38316 ft 393 kts 201°
2026-04-20 22:34 -29.95098 152.09970 38319 ft 392 kts 201°
2026-04-20 22:34 -30.00191 152.07663 38322 ft 393 kts 201°
2026-04-20 22:35 -30.05290 152.05350 38322 ft 395 kts 201°
2026-04-20 22:35 -30.10419 152.03021 38318 ft 396 kts 201°
2026-04-20 22:36 -30.15556 152.00687 38328 ft 395 kts 201°
2026-04-20 22:36 -30.20565 151.98408 38313 ft 394 kts 201°
2026-04-20 22:37 -30.25679 151.96078 38321 ft 395 kts 201°
2026-04-20 22:37 -30.30804 151.93741 38319 ft 396 kts 201°
2026-04-20 22:38 -30.35911 151.91409 38319 ft 395 kts 201°
2026-04-20 22:38 -30.41003 151.89082 38319 ft 394 kts 201°
2026-04-20 22:39 -30.46105 151.86748 38311 ft 395 kts 201°
2026-04-20 22:39 -30.51219 151.84404 38310 ft 394 kts 201°
2026-04-20 22:40 -30.56325 151.82063 38308 ft 394 kts 201°
2026-04-20 22:40 -30.61415 151.79726 38313 ft 394 kts 201°
2026-04-20 22:41 -30.66501 151.77388 38302 ft 395 kts 201°
2026-04-20 22:41 -30.71626 151.75029 38312 ft 396 kts 201°
2026-04-20 22:42 -30.76741 151.72673 38307 ft 395 kts 201°
2026-04-20 22:42 -30.81859 151.70312 38316 ft 395 kts 201°
2026-04-20 22:43 -30.86960 151.67958 38322 ft 396 kts 201°
2026-04-20 22:43 -30.92107 151.65579 38318 ft 397 kts 201°
2026-04-20 22:44 -30.97226 151.63209 38329 ft 397 kts 201°
2026-04-20 22:44 -31.02357 151.60832 38326 ft 397 kts 201°
2026-04-20 22:45 -31.07477 151.58458 38320 ft 396 kts 201°
2026-04-20 22:45 -31.12237 151.56247 38328 ft 396 kts 201°
2026-04-20 22:46 -31.17133 151.53969 38328 ft 396 kts 200°
2026-04-20 22:46 -31.22281 151.51573 38322 ft 396 kts 201°
2026-04-20 22:47 -31.27387 151.49194 38328 ft 396 kts 201°
2026-04-20 22:47 -31.32500 151.46809 38325 ft 397 kts 200°
2026-04-20 22:48 -31.37641 151.44408 38327 ft 396 kts 201°
2026-04-20 22:48 -31.42753 151.42017 38330 ft 396 kts 201°
2026-04-20 22:49 -31.47893 151.39610 38320 ft 396 kts 200°
2026-04-20 22:49 -31.52992 151.37219 38328 ft 396 kts 200°
2026-04-20 22:50 -31.58107 151.34819 38320 ft 397 kts 201°
2026-04-20 22:50 -31.63274 151.32391 38326 ft 398 kts 201°
2026-04-20 22:51 -31.68402 151.29977 38321 ft 397 kts 201°
2026-04-20 22:51 -31.73537 151.27559 38333 ft 397 kts 201°
2026-04-20 22:52 -31.78613 151.25166 38322 ft 396 kts 201°
2026-04-20 22:52 -31.83884 151.23366 37927 ft 393 kts 189°
2026-04-20 22:53 -31.86568 151.23030 37534 ft 388 kts 184°
2026-04-20 22:53 -31.89241 151.22850 37221 ft 383 kts 184°
2026-04-20 22:53 -31.91898 151.22675 36662 ft 381 kts 184°
2026-04-20 22:53 -31.94534 151.22450 35684 ft 388 kts 185°
2026-04-20 22:54 -31.97285 151.22154 34545 ft 398 kts 186°
2026-04-20 22:54 -32.00051 151.21808 33615 ft 402 kts 186°
2026-04-20 22:54 -32.02821 151.21437 32778 ft 404 kts 186°
2026-04-20 22:54 -32.05623 151.21051 32129 ft 401 kts 186°
2026-04-20 22:55 -32.08364 151.20668 31486 ft 399 kts 186°
2026-04-20 22:55 -32.11092 151.20287 30941 ft 394 kts 186°
2026-04-20 22:55 -32.13722 151.19919 30369 ft 392 kts 186°
2026-04-20 22:55 -32.16170 151.19575 29838 ft 389 kts 186°
2026-04-20 22:56 -32.18604 151.19235 29314 ft 386 kts 186°
2026-04-20 22:56 -32.21312 151.18858 28609 ft 386 kts 186°
2026-04-20 22:56 -32.24012 151.18483 28054 ft 382 kts 186°
2026-04-20 22:56 -32.26624 151.18118 27521 ft 379 kts 186°
2026-04-20 22:57 -32.29255 151.17750 26968 ft 375 kts 186°
2026-04-20 22:57 -32.31818 151.17392 26347 ft 374 kts 186°
2026-04-20 22:57 -32.34390 151.17032 25858 ft 370 kts 186°
2026-04-20 22:57 -32.36940 151.16676 25306 ft 367 kts 185°
2026-04-20 22:58 -32.39461 151.16322 24734 ft 365 kts 186°
2026-04-20 22:58 -32.41983 151.15970 24199 ft 362 kts 186°
2026-04-20 22:58 -32.44471 151.15620 23682 ft 359 kts 186°
2026-04-20 22:58 -32.46938 151.15274 23148 ft 356 kts 186°
2026-04-20 22:59 -32.49386 151.14931 22566 ft 356 kts 186°
2026-04-20 22:59 -32.51832 151.14587 22002 ft 355 kts 186°
2026-04-20 22:59 -32.54254 151.14247 21499 ft 352 kts 186°
2026-04-20 22:59 -32.56705 151.13904 20975 ft 351 kts 186°
2026-04-20 23:00 -32.59125 151.13564 20421 ft 350 kts 186°
2026-04-20 23:00 -32.61548 151.13222 19873 ft 349 kts 186°
2026-04-20 23:00 -32.64002 151.12878 19679 ft 365 kts 186°
2026-04-20 23:00 -32.66571 151.12518 19825 ft 377 kts 186°
2026-04-20 23:01 -32.69210 151.12148 20080 ft 387 kts 186°
2026-04-20 23:01 -32.71908 151.11768 20352 ft 395 kts 186°
2026-04-20 23:01 -32.74663 151.11380 20637 ft 402 kts 186°
2026-04-20 23:01 -32.77462 151.10985 20899 ft 409 kts 186°
2026-04-20 23:02 -32.80307 151.10582 21154 ft 415 kts 186°
2026-04-20 23:02 -32.83237 151.10169 21424 ft 421 kts 186°
2026-04-20 23:02 -32.86155 151.09755 21693 ft 427 kts 186°
2026-04-20 23:02 -32.89140 151.09332 21972 ft 431 kts 186°
2026-04-20 23:03 -32.92123 151.08910 22250 ft 436 kts 186°
2026-04-20 23:03 -32.95118 151.08484 22535 ft 439 kts 186°
2026-04-20 23:03 -32.98192 151.08049 22824 ft 442 kts 186°
2026-04-20 23:03 -33.01248 151.07614 23099 ft 445 kts 186°
2026-04-20 23:04 -33.04330 151.07176 23403 ft 447 kts 186°
2026-04-20 23:04 -33.07423 151.06737 23705 ft 449 kts 186°
2026-04-20 23:04 -33.09513 151.06439 23527 ft 435 kts 186°
2026-04-20 23:04 -33.12006 151.06166 13262 ft 354 kts 184°
2026-04-20 23:05 -33.14379 151.05884 12902 ft 332 kts 186°
2026-04-20 23:05 -33.16603 151.05539 12437 ft 318 kts 187°
2026-04-20 23:05 -33.18770 151.05176 11756 ft 312 kts 187°
2026-04-20 23:05 -33.20914 151.04829 10999 ft 309 kts 186°
2026-04-20 23:06 -33.23044 151.04517 10257 ft 305 kts 184°
2026-04-20 23:06 -33.25136 151.04474 9514 ft 302 kts 175°
2026-04-20 23:06 -33.27185 151.04814 8929 ft 293 kts 168°
2026-04-20 23:06 -33.29165 151.05302 8438 ft 283 kts 167°
2026-04-20 23:07 -33.31056 151.05762 8030 ft 272 kts 168°
2026-04-20 23:07 -33.32888 151.06099 7636 ft 262 kts 172°
2026-04-20 23:07 -33.34681 151.06299 7234 ft 254 kts 174°
2026-04-20 23:07 -33.36402 151.06456 6849 ft 246 kts 173°
2026-04-20 23:08 -33.38078 151.06632 6615 ft 233 kts 172°
2026-04-20 23:08 -33.39629 151.06813 6530 ft 216 kts 172°
2026-04-20 23:08 -33.41113 151.06998 6384 ft 206 kts 172°
2026-04-20 23:08 -33.42545 151.07176 6094 ft 208 kts 172°
2026-04-20 23:09 -33.43977 151.07356 5764 ft 211 kts 172°
2026-04-20 23:09 -33.45454 151.07538 5489 ft 211 kts 172°
2026-04-20 23:09 -33.46926 151.07719 5241 ft 210 kts 172°
2026-04-20 23:09 -33.48359 151.07895 4975 ft 210 kts 172°
2026-04-20 23:10 -33.49810 151.08075 4760 ft 208 kts 172°
2026-04-20 23:10 -33.51270 151.08255 4498 ft 208 kts 172°
2026-04-20 23:10 -33.52694 151.08431 4273 ft 206 kts 172°
2026-04-20 23:10 -33.54127 151.08609 4021 ft 206 kts 172°
2026-04-20 23:11 -33.55555 151.08789 3771 ft 205 kts 171°
2026-04-20 23:11 -33.56966 151.09027 3526 ft 204 kts 170°
2026-04-20 23:11 -33.58377 151.09303 3371 ft 199 kts 169°
2026-04-20 23:11 -33.59727 151.09563 3163 ft 197 kts 169°
2026-04-20 23:12 -33.61107 151.09831 2979 ft 200 kts 169°
2026-04-20 23:12 -33.62483 151.10107 2975 ft 201 kts 169°
2026-04-20 23:12 -33.63876 151.10391 2985 ft 201 kts 168°
2026-04-20 23:12 -33.65258 151.10640 2993 ft 202 kts 173°
2026-04-20 23:13 -33.66677 151.10800 2988 ft 201 kts 173°
2026-04-20 23:13 -33.68074 151.10944 2987 ft 201 kts 173°
2026-04-20 23:13 -33.69474 151.11160 2977 ft 202 kts 169°
2026-04-20 23:13 -33.70859 151.11491 2976 ft 202 kts 167°
2026-04-20 23:14 -33.72243 151.11842 2971 ft 202 kts 167°
2026-04-20 23:14 -33.73618 151.12189 2975 ft 202 kts 167°
2026-04-20 23:14 -33.74987 151.12540 2982 ft 202 kts 167°
2026-04-20 23:14 -33.76366 151.12895 2988 ft 202 kts 167°
2026-04-20 23:15 -33.77742 151.13248 2986 ft 202 kts 167°
2026-04-20 23:15 -33.79150 151.13611 2792 ft 205 kts 167°
2026-04-20 23:15 -33.80537 151.13966 2537 ft 201 kts 167°
2026-04-20 23:15 -33.81884 151.14314 2256 ft 199 kts 167°
2026-04-20 23:16 -33.83227 151.14659 1987 ft 196 kts 168°
2026-04-20 23:16 -33.84572 151.15007 1721 ft 194 kts 168°
2026-04-20 23:16 -33.85882 151.15344 1456 ft 186 kts 168°
2026-04-20 23:16 -33.87072 151.15651 1223 ft 173 kts 169°
2026-04-20 23:17 -33.88198 151.15942 1007 ft 159 kts 169°
2026-04-20 23:17 -33.89233 151.16209 806 ft 145 kts 170°
2026-04-20 23:17 -33.90176 151.16452 607 ft 136 kts 171°
2026-04-20 23:17 -33.91087 151.16682 442 ft 132 kts 172°
2026-04-20 23:18 -33.91996 151.16921 266 ft 133 kts 171°
2026-04-20 23:18 -33.92912 151.17158 98 ft 135 kts 172°
2026-04-20 23:18 -33.93821 151.17387 29 ft 118 kts 168°
2026-04-20 23:18 -33.94406 151.17537 29 ft 57 kts 169°
2026-04-20 23:19 -33.94720 151.17615 29 ft 17 kts 187°
2026-04-20 23:19 -33.94749 151.17508 29 ft 14 kts 277°
2026-04-20 23:19 -33.94673 151.17406 29 ft 22 kts 341°
2026-04-20 23:19 -33.94512 151.17364 29 ft 23 kts 348°
2026-04-20 23:20 -33.94389 151.17334 29 ft 8 kts 347°
2026-04-20 23:20 -33.94333 151.17317 29 ft 9 kts 347°
2026-04-20 23:20 -33.94240 151.17296 29 ft 20 kts 348°
2026-04-20 23:20 -33.94087 151.17253 29 ft 21 kts 348°
2026-04-20 23:21 -33.93985 151.17184 29 ft 15 kts 266°
2026-04-20 23:21 -33.93935 151.17099 29 ft 13 kts 349°
2026-04-20 23:21 -33.93903 151.17073 29 ft 7 kts 270°
2026-04-20 23:21 -33.93924 151.16988 29 ft 7 kts 255°
2026-04-20 23:22 -33.93926 151.16980 29 ft 0 kts 255°